FW6886 Weather Reports


time (UTC)temp
C
wind
direction
speed
KPH
gust
KPH
rain 1hr
cm
rain 24hr
cm
rain mn
cm
humidity
%
barometer
mb
20260504040012 14 228 4.8 8.0 0.00 0.00 0.00 36 1002.3
20260504034512 14 232 3.2 6.4 0.00 0.00 0.00 35 1002.5
20260504033009 15 232 4.8 9.7 0.00 0.00 0.00 34 1002.7
20260504031507 15 235 4.8 11.3 0.00 0.00 0.00 34 1003.0
20260504030008 15 240 4.8 8.0 0.00 0.00 0.00 34 1003.0
20260504024509 15 244 3.2 6.4 0.00 0.00 0.00 33 1003.0
20260504023008 15 246 3.2 6.4 0.00 0.00 0.00 32 1003.0
20260504021505 15 268 3.2 9.7 0.00 0.00 0.00 32 1003.0
20260504020007 16 279 3.2 6.4 0.00 0.00 0.00 32 1003.1
20260504014503 16 280 1.6 4.8 0.00 0.00 0.00 31 1003.1
20260504013002 16 280 3.2 4.8 0.00 0.00 0.00 31 1003.2
20260504011606 17 283 1.6 11.3 0.00 0.00 0.00 31 1003.2
20260504010101 17 273 4.8 14.5 0.00 0.00 0.00 30 1003.2
20260504004559 18 249 3.2 6.4 0.00 0.00 0.00 29 1003.2
20260504003100 18 239 3.2 14.5 0.00 0.00 0.00 28 1003.3
20260504001609 18 245 6.4 17.7 0.00 0.00 0.00 27 1003.3
20260504000056 19 266 4.8 17.7 0.00 0.00 0.00 27 1003.3
20260503234556 19 261 9.7 19.3 0.00 0.00 0.00 28 1003.3
20260503233055 20 286 6.4 25.7 0.00 0.00 0.00 28 1003.3
20260503231553 20 285 8.0 22.5 0.00 0.00 0.00 29 1003.3
20260503230053 20 259 8.0 19.3 0.00 0.00 0.00 27 1003.4
20260503224552 21 242 3.2 19.3 0.00 0.00 0.00 26 1003.5
20260503223051 21 271 3.2 22.5 0.00 0.00 0.00 24 1003.7
20260503221550 22 298 12.9 30.6 0.00 0.00 0.00 23 1003.5
20260503220052 22 340 9.7 22.5 0.00 0.00 0.00 22 1003.5
20260503214549 22 304 6.4 20.9 0.00 0.00 0.00 22 1003.5
20260503213055 22 306 9.7 24.1 0.00 0.00 0.00 23 1003.5
20260503211545 22 215 4.8 22.5 0.00 0.00 0.00 25 1003.5
20260503210049 22 275 4.8 24.1 0.00 0.00 0.00 27 1003.6
20260503204542 22 329 12.9 24.1 0.00 0.00 0.00 28 1003.9
20260503203040 22 355 4.8 29.0 0.00 0.00 0.00 28 1003.9
20260503201537 22 327 8.0 27.4 0.00 0.00 0.00 31 1004.1
20260503200042 22 321 11.3 30.6 0.00 0.00 0.00 29 1004.3
20260503194538 22 313 12.9 25.7 0.00 0.00 0.00 33 1004.3
20260503193036 22 343 12.9 20.9 0.00 0.00 0.00 34 1004.3
20260503191534 22 325 8.0 19.3 0.00 0.00 0.00 34 1004.4
20260503190033 22 294 8.0 20.9 0.00 0.00 0.00 33 1004.5
20260503184532 22 17 6.4 27.4 0.00 0.00 0.00 29 1004.5
20260503183047 22 293 8.0 20.9 0.00 0.00 0.00 34 1004.7
20260503181528 22 310 8.0 19.3 0.00 0.00 0.00 35 1004.7
20260503180028 21 319 6.4 22.5 0.00 0.00 0.00 34 1004.9
20260503174527 21 331 12.9 27.4 0.00 0.00 0.00 35 1005.0
20260503173025 21 313 9.7 17.7 0.00 0.00 0.00 34 1005.0
20260503171521 21 14 8.0 24.1 0.00 0.00 0.00 36 1005.1
20260503081505 11 200 8.0 16.1 0.00 0.00 0.00 56 1006.2
20260503080117 11 194 6.4 14.5 0.00 0.00 0.00 55 1006.1
20260503071552 12 221 4.8 19.3 0.00 0.00 0.00 50 1007.4
20260503070150 12 207 8.0 17.7 0.00 0.00 0.00 51 1007.5
20260503054544 13 179 3.2 11.3 0.00 0.00 0.00 49 1008.2
20260503053033 13 157 6.4 14.5 0.00 0.00 0.00 48 1008.3
20260503051529 13 221 4.8 9.7 0.00 0.00 0.00 48 1008.4
20260503050035 13 188 3.2 9.7 0.00 0.00 0.00 48 1008.7
20260503044526 13 188 4.8 9.7 0.00 0.00 0.00 47 1008.7
20260503043023 13 183 4.8 12.9 0.00 0.00 0.00 46 1009.1
20260503041521 13 191 4.8 12.9 0.00 0.00 0.00 47 1009.3